Kosmos-2307

operational
NORAD ID: 23511 Int'l Des: 1995-009 Owner: VKS Country: RU Constellation: GLONASS
MEOCIRCULAR

Über Kosmos-2307

Beschreibung wird geladen...

Live-Position

3D-Globus wird geladen...

Nächste Überflüge

Höhenverlauf

Altitude vs Time

uPlot chart will show altitude changes over time

Zweizeiliger Elementsatz

1 23511U 95009A 25350.45255625 -.00000071 00000-0 00000-0 0 9993
2 23511 64.1405 307.7177 0004963 139.3375 353.1465 2.13105376239301
Epoch: 16. Dez. 2025 • Age: 32 hours

Aktueller Status

Höhe 19132.3 km
Geschwindigkeit 3.96 km/s
Subsatellitenpunkt 63.96°N, 14.87°E
Startdatum 7. März 1995
Alter 30.7 years
Typ other

Technische Details

Klassifizierung Payload
Masse 1300.00 kg
Trockenmasse 1200.00 kg
Gesamtmasse 1300.00 kg
Länge 4.00 m
Durchmesser 1.50 m
Spannweite 7.80 m
Form Cyl + Ant + 2 Pan
Hersteller POL
Bus-Typ Uragan
Phasenstatus In Orbit
Besitzer/Staat VKS/RU

Große Konstellationen

Loading constellations...